Regional Weather Roundup
Issued by NWS

Home | Current Version | Previous Version | Text Only | Print | Product List | Glossary On
Versions: 1 2 3 4 5 6 7 8 9 10 11 12 13 14 15 16 17 18 19 20 21 22 23 24 25 26 27 28 29 30 31 32 33 34 35 36 37 38 39 40 41 42 43 44 45 46 47 48 49 50
043
ASUS44 KLIX 271405
RWRLA
LOUISIANA WEATHER ROUNDUP
NATIONAL WEATHER SERVICE NEW ORLEANS LA
900 AM CDT SUN JUL 27 2014

NOTE: "FAIR" INDICATES FEW OR NO CLOUDS BELOW 12,000 FEET WITH NO
      SIGNIFICANT WEATHER AND/OR OBSTRUCTIONS TO VISIBILITY.
      SKY/WX - SKY CONDITION AND SIGNIFICANT WEATHER.
      TMP - AIR TEMPERATURE.    DP   - DEWPOINT TEMPERATURE.
      RH  - RELATIVE HUMIDITY.  PRES - PRESSURE.
      HX  - HEAT INDEX.         WCI  - WIND CHILL INDEX.

*  THESE STATIONS ARE NOT NWS OR FAA STATIONS AND ARE NOT UNDER
   NWS QUALITY CONTROL.

LAZ040-048-061>063-065-066-069-271500-
SOUTHEAST LOUISIANA

CITY           SKY/WX    TMP DP  RH WIND       PRES   REMARKS
N.O. AUDUBON     N/A     89  78  70 MISG        N/A  HX 103
N.O. INTL ARPT MOSUNNY   85  76  74 W10       30.10R
N.O. LAKEFRONT SUNNY     84  78  82 W10       30.11R HX  95
N.O. DOWNTOWN* FAIR      86  73  66 W6        30.11R
SLIDELL        SUNNY     85  76  74 VRB7      30.09R
BATON ROUGE    SUNNY     85  76  74 W7        30.10R
BOOTHVILLE     LGT RAIN  79  75  87 S5        30.12R FOG
BELLE CHASSE   MOSUNNY   86  75  69 VRB7      30.10R HX  95
BOGALUSA*      FAIR      84  76  75 NW6       30.12R
GALLIANO*      NOT AVBL
NEW ROADS*     FAIR      82  77  85 W3        30.10R
GONZALES*      FAIR      83  80  89 SW5       30.09S HX  96
HAMMOND*       SUNNY     86  75  70 W8        30.11R HX  95
HOUMA*         MOSUNNY   84  75  74 SW3       30.10R
PORT FOURCHON* SUNNY     86  77  74 W8        30.13R HX  97

$$

LAZ041-044-053-054-271500-
SOUTHWEST LOUISIANA

CITY           SKY/WX    TMP DP  RH WIND       PRES   REMARKS
LAKE CHARLES   SUNNY     85  77  77 SW7       30.09R HX  95
LAFAYETTE      SUNNY     84  77  79 SW9       30.09S
PATTERSON      SUNNY     86  79  79 W7        30.15R HX  99
SALT POINT       N/A     89  78  70 VRB5      30.10R HX 103
NEW IBERIA     SUNNY     85  78  80 SW6       30.11R HX  96
CHENAULT AIRPK MOSUNNY   84  75  74 SW7       30.09S

$$

LAZ027-028-271500-
CENTRAL LOUISIANA

CITY           SKY/WX    TMP DP  RH WIND       PRES   REMARKS
FORT POLK      SUNNY     82  76  81 W8        30.10R
ALEXANDRIA INT SUNNY     83  76  79 W6        30.07R
ALEXANDRIA     MOSUNNY   85  76  74 W13       30.08R

$$

LAZ001-002-271500-
NORTHWEST LOUISIANA

CITY           SKY/WX    TMP DP  RH WIND       PRES   REMARKS
SHREVEPORT     MOSUNNY   82  75  79 SW14G20   30.05S
BARKSDALE AFB  SUNNY     83  74  75 W8        30.06R
DTN SHREVEPORT SUNNY     82  74  76 SW10      30.06R

$$

LAZ014-016-271500-
NORTHEAST LOUISIANA

CITY           SKY/WX    TMP DP  RH WIND       PRES   REMARKS
MONROE         SUNNY     84  75  74 W10       30.07R
TALLULAH       SUNNY     83  76  79 VRB7      30.07R

$$




USA.gov is the U.S. government's official web portal to all federal, state and local government web resources and services.